Time,TemperatureF,DewpointF,PressureIn,WindDirection,WindDirectionDegrees,WindSpeedMPH,WindSpeedGustMPH,Humidity,HourlyPrecipIn,Conditions,Clouds,dailyrainin,SoftwareType,DateUTC
2013-02-27 00:00:00,36.5,28.3,30.18,ESE,102,4.0,18.0,72,0.00,,,0.00,Weather View 32 v70,2013-02-27 05:00:00,
2013-02-27 00:05:00,36.6,28.4,30.17,SE,141,8.0,18.0,72,0.00,,,0.00,Weather View 32 v70,2013-02-27 05:05:00,
2013-02-27 00:10:00,36.5,28.0,30.17,SE,144,4.0,18.0,71,0.00,,,0.00,Weather View 32 v70,2013-02-27 05:10:00,
2013-02-27 00:15:00,36.6,28.1,30.16,SE,133,6.0,18.0,71,0.00,,,0.00,Weather View 32 v70,2013-02-27 05:15:00,
2013-02-27 00:20:00,36.5,27.3,30.14,NE,55,3.0,18.0,69,0.00,,,0.00,Weather View 32 v70,2013-02-27 05:20:00,
2013-02-27 00:25:00,36.8,26.9,30.14,SE,145,3.0,18.0,67,0.00,,,0.00,Weather View 32 v70,2013-02-27 05:25:00,
2013-02-27 00:30:00,36.6,27.0,30.15,SE,132,8.0,18.0,68,0.00,,,0.00,Weather View 32 v70,2013-02-27 05:30:00,
2013-02-27 00:35:00,36.6,27.7,30.15,ENE,74,6.0,18.0,70,0.00,,,0.00,Weather View 32 v70,2013-02-27 05:35:00,
2013-02-27 00:40:00,36.3,27.4,30.16,SSE,157,3.0,18.0,70,0.00,,,0.00,Weather View 32 v70,2013-02-27 05:40:00,
2013-02-27 00:45:00,36.3,27.8,30.16,SE,131,4.0,18.0,71,0.00,,,0.00,Weather View 32 v70,2013-02-27 05:45:00,
2013-02-27 00:50:00,36.5,28.7,30.16,South,177,3.0,18.0,73,0.00,,,0.00,Weather View 32 v70,2013-02-27 05:50:00,
2013-02-27 00:55:00,36.3,28.1,30.17,SSW,201,3.0,18.0,72,0.00,,,0.00,Weather View 32 v70,2013-02-27 05:55:00,
2013-02-27 01:00:00,36.5,29.0,30.18,South,191,2.0,13.0,74,0.00,,,0.00,Weather View 32 v70,2013-02-27 06:00:00,
2013-02-27 01:05:00,36.1,28.9,30.16,East,99,2.0,13.0,75,0.00,,,0.00,Weather View 32 v70,2013-02-27 06:05:00,
2013-02-27 01:10:00,34.5,28.7,30.16,SSE,150,3.0,13.0,79,0.00,,,0.00,Weather View 32 v70,2013-02-27 06:10:00,
2013-02-27 01:15:00,33.8,28.6,30.16,SE,137,3.0,13.0,81,0.00,,,0.00,Weather View 32 v70,2013-02-27 06:15:00,
2013-02-27 01:20:00,33.6,29.3,30.17,South,176,2.0,13.0,84,0.00,,,0.00,Weather View 32 v70,2013-02-27 06:20:00,
2013-02-27 01:25:00,33.4,29.7,30.17,SSW,211,2.0,13.0,86,0.01,,,0.01,Weather View 32 v70,2013-02-27 06:25:00,
2013-02-27 01:30:00,32.9,29.5,30.16,SW,235,1.0,13.0,87,0.01,,,0.01,Weather View 32 v70,2013-02-27 06:30:00,
2013-02-27 01:35:00,33.0,29.8,30.17,SW,232,2.0,13.0,88,0.01,,,0.01,Weather View 32 v70,2013-02-27 06:35:00,
2013-02-27 01:40:00,33.2,30.0,30.15,East,89,1.0,8.0,88,0.01,,,0.01,Weather View 32 v70,2013-02-27 06:40:00,
2013-02-27 01:45:00,33.0,30.1,30.16,NNE,22,0.0,8.0,89,0.01,,,0.01,Weather View 32 v70,2013-02-27 06:45:00,
2013-02-27 01:50:00,33.2,30.0,30.16,North,360,1.0,6.0,88,0.02,,,0.02,Weather View 32 v70,2013-02-27 06:50:00,
2013-02-27 01:55:00,33.0,30.1,30.16,WNW,303,0.0,6.0,89,0.02,,,0.02,Weather View 32 v70,2013-02-27 06:55:00,
2013-02-27 02:00:00,32.7,29.8,30.16,NNE,31,0.0,6.0,89,0.02,,,0.02,Weather View 32 v70,2013-02-27 07:00:00,
2013-02-27 02:05:00,32.9,30.0,30.16,North,4,1.0,6.0,89,0.04,,,0.04,Weather View 32 v70,2013-02-27 07:05:00,
2013-02-27 02:10:00,32.5,29.6,30.15,NNW,348,1.0,6.0,89,0.05,,,0.05,Weather View 32 v70,2013-02-27 07:10:00,
2013-02-27 02:15:00,33.0,30.1,30.16,NW,321,0.0,6.0,89,0.05,,,0.05,Weather View 32 v70,2013-02-27 07:15:00,
2013-02-27 02:20:00,32.9,30.3,30.15,NW,319,0.0,5.0,90,0.05,,,0.05,Weather View 32 v70,2013-02-27 07:20:00,
2013-02-27 02:25:00,32.7,30.1,30.16,NNW,342,0.0,3.0,90,0.04,,,0.05,Weather View 32 v70,2013-02-27 07:25:00,
2013-02-27 02:30:00,32.9,30.3,30.15,NW,307,0.0,3.0,90,0.04,,,0.05,Weather View 32 v70,2013-02-27 07:30:00,
2013-02-27 02:35:00,32.7,30.1,30.15,NW,314,0.0,3.0,90,0.04,,,0.05,Weather View 32 v70,2013-02-27 07:35:00,
2013-02-27 02:40:00,32.9,30.3,30.14,North,3,0.0,2.0,90,0.04,,,0.05,Weather View 32 v70,2013-02-27 07:40:00,
2013-02-27 02:45:00,32.9,30.3,30.14,NW,319,0.0,2.0,90,0.04,,,0.05,Weather View 32 v70,2013-02-27 07:45:00,
2013-02-27 02:50:00,32.9,30.3,30.14,NW,323,0.0,2.0,90,0.03,,,0.05,Weather View 32 v70,2013-02-27 07:50:00,
2013-02-27 02:55:00,32.7,30.1,30.13,NNW,342,0.0,2.0,90,0.03,,,0.05,Weather View 32 v70,2013-02-27 07:55:00,
2013-02-27 03:00:00,33.2,30.6,30.13,NW,304,0.0,2.0,90,0.04,,,0.06,Weather View 32 v70,2013-02-27 08:00:00,
2013-02-27 03:05:00,33.8,31.2,30.13,NW,325,0.0,1.0,90,0.02,,,0.06,Weather View 32 v70,2013-02-27 08:05:00,
2013-02-27 03:10:00,33.4,30.8,30.13,WSW,238,0.0,1.0,90,0.01,,,0.06,Weather View 32 v70,2013-02-27 08:10:00,
2013-02-27 03:15:00,33.2,30.6,30.12,WNW,296,0.0,0.0,90,0.01,,,0.06,Weather View 32 v70,2013-02-27 08:15:00,
2013-02-27 03:20:00,33.4,30.8,30.12,NW,318,0.0,0.0,90,0.01,,,0.06,Weather View 32 v70,2013-02-27 08:20:00,
2013-02-27 03:25:00,33.4,30.8,30.12,West,277,0.0,0.0,90,0.02,,,0.07,Weather View 32 v70,2013-02-27 08:25:00,
2013-02-27 03:30:00,33.4,30.8,30.11,NW,324,0.0,0.0,90,0.04,,,0.09,Weather View 32 v70,2013-02-27 08:30:00,
2013-02-27 03:35:00,32.5,29.9,30.11,NNW,331,0.0,0.0,90,0.05,,,0.10,Weather View 32 v70,2013-02-27 08:35:00,
2013-02-27 03:41:00,33.0,30.4,30.10,NNW,335,0.0,0.0,90,0.05,,,0.10,Weather View 32 v70,2013-02-27 08:41:00,
2013-02-27 03:46:00,32.7,30.1,30.09,NNE,25,0.0,0.0,90,0.05,,,0.10,Weather View 32 v70,2013-02-27 08:46:00,
2013-02-27 03:51:00,33.0,30.4,30.08,North,354,0.0,0.0,90,0.08,,,0.13,Weather View 32 v70,2013-02-27 08:51:00,
2013-02-27 03:56:00,33.0,30.4,30.08,ENE,64,0.0,0.0,90,0.12,,,0.17,Weather View 32 v70,2013-02-27 08:56:00,
2013-02-27 04:01:00,33.0,30.4,30.09,NNW,347,0.0,0.0,90,0.12,,,0.18,Weather View 32 v70,2013-02-27 09:01:00,
2013-02-27 04:06:00,32.9,30.3,30.09,NNE,15,0.0,0.0,90,0.13,,,0.19,Weather View 32 v70,2013-02-27 09:06:00,
2013-02-27 04:11:00,33.0,30.4,30.08,North,356,0.0,0.0,90,0.13,,,0.19,Weather View 32 v70,2013-02-27 09:11:00,
2013-02-27 04:16:00,33.0,30.4,30.08,WNW,295,0.0,0.0,90,0.14,,,0.20,Weather View 32 v70,2013-02-27 09:16:00,
2013-02-27 04:21:00,33.2,30.6,30.07,North,2,0.0,0.0,90,0.18,,,0.24,Weather View 32 v70,2013-02-27 09:21:00,
2013-02-27 04:26:00,33.2,30.9,30.07,NNW,334,0.0,0.0,91,0.19,,,0.26,Weather View 32 v70,2013-02-27 09:26:00,
2013-02-27 04:31:00,33.6,31.3,30.06,NNE,33,0.0,0.0,91,0.18,,,0.27,Weather View 32 v70,2013-02-27 09:31:00,
2013-02-27 04:36:00,32.9,30.6,30.06,NNE,24,0.0,0.0,91,0.17,,,0.27,Weather View 32 v70,2013-02-27 09:36:00,
2013-02-27 04:41:00,33.0,30.7,30.06,NW,316,0.0,0.0,91,0.17,,,0.27,Weather View 32 v70,2013-02-27 09:41:00,
2013-02-27 04:46:00,33.2,30.9,30.06,NW,308,0.0,0.0,91,0.17,,,0.27,Weather View 32 v70,2013-02-27 09:46:00,
2013-02-27 04:51:00,33.2,30.9,30.06,NE,36,0.0,0.0,91,0.17,,,0.31,Weather View 32 v70,2013-02-27 09:51:00,
2013-02-27 04:56:00,33.0,30.7,30.05,NW,321,0.0,0.0,91,0.15,,,0.33,Weather View 32 v70,2013-02-27 09:56:00,
2013-02-27 05:01:00,32.9,30.6,30.05,NW,317,0.0,0.0,91,0.15,,,0.33,Weather View 32 v70,2013-02-27 10:01:00,
2013-02-27 05:06:00,33.0,30.7,30.05,North,349,0.0,0.0,91,0.15,,,0.34,Weather View 32 v70,2013-02-27 10:06:00,
2013-02-27 05:11:00,32.7,30.4,30.04,NNW,348,0.0,0.0,91,0.15,,,0.34,Weather View 32 v70,2013-02-27 10:11:00,
2013-02-27 05:16:00,33.4,31.1,30.04,North,353,0.0,0.0,91,0.14,,,0.34,Weather View 32 v70,2013-02-27 10:16:00,
2013-02-27 05:21:00,33.0,30.7,30.03,WNW,301,0.0,0.0,91,0.12,,,0.36,Weather View 32 v70,2013-02-27 10:21:00,
2013-02-27 05:26:00,32.9,30.6,30.03,NW,326,0.0,0.0,91,0.12,,,0.38,Weather View 32 v70,2013-02-27 10:26:00,
2013-02-27 05:31:00,33.2,30.9,30.03,WSW,244,0.0,0.0,91,0.11,,,0.38,Weather View 32 v70,2013-02-27 10:31:00,
2013-02-27 05:36:00,33.0,30.7,30.03,NE,35,1.0,0.0,91,0.12,,,0.39,Weather View 32 v70,2013-02-27 10:36:00,
2013-02-27 05:41:00,33.4,31.1,30.03,North,352,0.0,1.0,91,0.12,,,0.39,Weather View 32 v70,2013-02-27 10:41:00,
2013-02-27 05:46:00,33.0,30.7,30.02,NNW,333,0.0,1.0,91,0.12,,,0.39,Weather View 32 v70,2013-02-27 10:46:00,
2013-02-27 05:51:00,33.2,30.9,30.02,West,268,0.0,1.0,91,0.09,,,0.39,Weather View 32 v70,2013-02-27 10:51:00,
2013-02-27 05:56:00,33.0,30.7,30.01,West,267,0.0,1.0,91,0.07,,,0.39,Weather View 32 v70,2013-02-27 10:56:00,
2013-02-27 06:02:00,32.9,30.6,30.01,West,275,0.0,1.0,91,0.07,,,0.40,Weather View 32 v70,2013-02-27 11:02:00,
2013-02-27 06:07:00,33.2,30.9,30.00,WSW,256,0.0,1.0,91,0.06,,,0.40,Weather View 32 v70,2013-02-27 11:07:00,
2013-02-27 06:12:00,33.0,30.7,29.99,NNW,327,0.0,1.0,91,0.06,,,0.40,Weather View 32 v70,2013-02-27 11:12:00,
2013-02-27 06:17:00,32.9,30.6,29.99,NNW,328,0.0,1.0,91,0.06,,,0.40,Weather View 32 v70,2013-02-27 11:17:00,
2013-02-27 06:22:00,33.0,30.7,29.99,West,276,0.0,1.0,91,0.04,,,0.40,Weather View 32 v70,2013-02-27 11:22:00,
2013-02-27 06:27:00,33.2,30.9,29.98,NW,318,0.0,1.0,91,0.02,,,0.40,Weather View 32 v70,2013-02-27 11:27:00,
2013-02-27 06:32:00,32.9,30.6,29.98,NW,323,0.0,1.0,91,0.02,,,0.41,Weather View 32 v70,2013-02-27 11:32:00,
2013-02-27 06:37:00,32.7,30.4,29.98,North,355,0.0,1.0,91,0.03,,,0.42,Weather View 32 v70,2013-02-27 11:37:00,
2013-02-27 06:42:00,33.2,30.9,29.97,NNW,334,0.0,0.0,91,0.04,,,0.43,Weather View 32 v70,2013-02-27 11:42:00,
2013-02-27 06:47:00,33.2,30.9,29.97,NNW,327,0.0,0.0,91,0.04,,,0.43,Weather View 32 v70,2013-02-27 11:47:00,
2013-02-27 06:52:00,33.0,30.7,29.97,West,273,0.0,0.0,91,0.05,,,0.44,Weather View 32 v70,2013-02-27 11:52:00,
2013-02-27 06:57:00,32.9,30.6,29.96,NNW,348,0.0,0.0,91,0.05,,,0.44,Weather View 32 v70,2013-02-27 11:57:00,
2013-02-27 07:02:00,33.0,30.7,29.96,NW,321,0.0,0.0,91,0.04,,,0.44,Weather View 32 v70,2013-02-27 12:02:00,
2013-02-27 07:07:00,33.0,30.7,29.96,West,263,0.0,0.0,91,0.04,,,0.44,Weather View 32 v70,2013-02-27 12:07:00,
2013-02-27 07:12:00,32.9,30.6,29.96,West,269,0.0,0.0,91,0.04,,,0.44,Weather View 32 v70,2013-02-27 12:12:00,
2013-02-27 07:17:00,33.2,30.9,29.96,NNW,340,0.0,0.0,91,0.05,,,0.45,Weather View 32 v70,2013-02-27 12:17:00,
2013-02-27 07:22:00,33.4,31.1,29.95,West,269,0.0,0.0,91,0.05,,,0.45,Weather View 32 v70,2013-02-27 12:22:00,
2013-02-27 07:27:00,33.4,31.1,29.96,WSW,256,0.0,0.0,91,0.05,,,0.45,Weather View 32 v70,2013-02-27 12:27:00,
2013-02-27 07:32:00,33.4,31.1,29.96,WNW,282,0.0,0.0,91,0.04,,,0.45,Weather View 32 v70,2013-02-27 12:32:00,
2013-02-27 07:37:00,33.8,31.5,29.96,NW,305,0.0,0.0,91,0.03,,,0.45,Weather View 32 v70,2013-02-27 12:37:00,
2013-02-27 07:42:00,33.8,31.5,29.96,NNW,340,0.0,0.0,91,0.02,,,0.45,Weather View 32 v70,2013-02-27 12:42:00,
2013-02-27 07:47:00,33.6,31.3,29.96,WNW,303,0.0,0.0,91,0.03,,,0.47,Weather View 32 v70,2013-02-27 12:47:00,
2013-02-27 07:52:00,33.6,31.3,29.95,West,260,0.0,0.0,91,0.03,,,0.47,Weather View 32 v70,2013-02-27 12:52:00,
2013-02-27 07:57:00,33.9,31.5,29.95,West,265,0.0,0.0,91,0.04,,,0.48,Weather View 32 v70,2013-02-27 12:57:00,
2013-02-27 08:02:00,33.4,31.1,29.95,WNW,296,0.0,0.0,91,0.05,,,0.49,Weather View 32 v70,2013-02-27 13:02:00,
2013-02-27 08:07:00,33.8,31.5,29.95,NNW,336,0.0,0.0,91,0.05,,,0.49,Weather View 32 v70,2013-02-27 13:07:00,
2013-02-27 08:12:00,33.4,31.1,29.95,West,261,0.0,0.0,91,0.05,,,0.50,Weather View 32 v70,2013-02-27 13:12:00,
2013-02-27 08:17:00,33.6,31.3,29.94,SW,236,0.0,0.0,91,0.05,,,0.50,Weather View 32 v70,2013-02-27 13:17:00,
2013-02-27 08:22:00,34.1,31.7,29.94,SSW,209,0.0,0.0,91,0.05,,,0.50,Weather View 32 v70,2013-02-27 13:22:00,
2013-02-27 08:27:00,34.3,31.9,29.94,NW,320,0.0,0.0,91,0.05,,,0.50,Weather View 32 v70,2013-02-27 13:27:00,
2013-02-27 08:32:00,33.9,31.5,29.94,West,262,0.0,0.0,91,0.05,,,0.50,Weather View 32 v70,2013-02-27 13:32:00,
2013-02-27 08:37:00,34.3,31.9,29.93,South,175,0.0,0.0,91,0.05,,,0.51,Weather View 32 v70,2013-02-27 13:37:00,
2013-02-27 08:42:00,34.3,31.9,29.93,WSW,247,0.0,0.0,91,0.06,,,0.51,Weather View 32 v70,2013-02-27 13:42:00,
2013-02-27 08:47:00,34.3,31.9,29.93,West,259,0.0,0.0,91,0.05,,,0.52,Weather View 32 v70,2013-02-27 13:47:00,
2013-02-27 08:52:00,34.5,32.1,29.93,WSW,256,0.0,0.0,91,0.05,,,0.52,Weather View 32 v70,2013-02-27 13:52:00,
2013-02-27 08:57:00,34.8,32.4,29.93,West,270,0.0,0.0,91,0.04,,,0.53,Weather View 32 v70,2013-02-27 13:57:00,
2013-02-27 09:02:00,35.0,32.6,29.93,WNW,303,0.0,0.0,91,0.04,,,0.53,Weather View 32 v70,2013-02-27 14:02:00,
2013-02-27 09:07:00,34.5,32.1,29.93,SW,228,3.0,3.0,91,0.05,,,0.54,Weather View 32 v70,2013-02-27 14:07:00,
2013-02-27 09:12:00,34.8,32.4,29.93,West,279,1.0,4.0,91,0.05,,,0.55,Weather View 32 v70,2013-02-27 14:12:00,
2013-02-27 09:17:00,34.8,32.4,29.92,WNW,291,1.0,4.0,91,0.07,,,0.57,Weather View 32 v70,2013-02-27 14:17:00,
2013-02-27 09:22:00,34.7,32.3,29.92,NNW,327,1.0,4.0,91,0.09,,,0.59,Weather View 32 v70,2013-02-27 14:22:00,
2013-02-27 09:27:00,35.0,32.6,29.92,West,261,1.0,4.0,91,0.11,,,0.61,Weather View 32 v70,2013-02-27 14:27:00,
2013-02-27 09:32:00,35.2,32.8,29.91,WSW,253,1.0,4.0,91,0.12,,,0.62,Weather View 32 v70,2013-02-27 14:32:00,
2013-02-27 09:37:00,35.6,33.0,29.91,WNW,284,2.0,4.0,90,0.12,,,0.63,Weather View 32 v70,2013-02-27 14:37:00,
2013-02-27 09:42:00,35.9,33.3,29.91,West,280,0.0,4.0,90,0.12,,,0.63,Weather View 32 v70,2013-02-27 14:42:00,
2013-02-27 09:47:00,35.7,33.1,29.90,WSW,242,2.0,4.0,90,0.12,,,0.64,Weather View 32 v70,2013-02-27 14:47:00,
2013-02-27 09:52:00,35.9,33.3,29.90,WSW,253,1.0,4.0,90,0.12,,,0.64,Weather View 32 v70,2013-02-27 14:52:00,
2013-02-27 09:57:00,35.9,33.3,29.90,SSW,208,0.0,4.0,90,0.12,,,0.65,Weather View 32 v70,2013-02-27 14:57:00,
2013-02-27 10:02:00,35.9,33.3,29.89,NW,304,1.0,4.0,90,0.12,,,0.65,Weather View 32 v70,2013-02-27 15:02:00,
2013-02-27 10:07:00,35.9,33.3,29.89,West,279,2.0,4.0,90,0.11,,,0.65,Weather View 32 v70,2013-02-27 15:07:00,
2013-02-27 10:12:00,36.3,33.6,29.89,West,280,2.0,3.0,90,0.10,,,0.65,Weather View 32 v70,2013-02-27 15:12:00,
2013-02-27 10:17:00,36.6,34.5,29.88,West,263,1.0,3.0,92,0.08,,,0.65,Weather View 32 v70,2013-02-27 15:17:00,
2013-02-27 10:22:00,36.5,34.4,29.88,NW,325,1.0,3.0,92,0.06,,,0.65,Weather View 32 v70,2013-02-27 15:22:00,
2013-02-27 10:27:00,36.6,34.5,29.87,West,278,1.0,3.0,92,0.04,,,0.65,Weather View 32 v70,2013-02-27 15:27:00,
2013-02-27 10:32:00,36.6,34.5,29.87,WSW,256,1.0,3.0,92,0.03,,,0.65,Weather View 32 v70,2013-02-27 15:32:00,
2013-02-27 10:37:00,36.6,34.5,29.86,NNW,328,0.0,3.0,92,0.02,,,0.65,Weather View 32 v70,2013-02-27 15:37:00,
2013-02-27 10:42:00,37.0,34.9,29.86,WSW,254,2.0,3.0,92,0.02,,,0.65,Weather View 32 v70,2013-02-27 15:42:00,
2013-02-27 10:47:00,36.8,34.7,29.86,WSW,244,1.0,3.0,92,0.01,,,0.65,Weather View 32 v70,2013-02-27 15:47:00,
2013-02-27 10:52:00,36.8,34.7,29.86,SW,227,2.0,3.0,92,0.01,,,0.65,Weather View 32 v70,2013-02-27 15:52:00,
2013-02-27 10:57:00,36.8,34.7,29.85,West,280,1.0,3.0,92,0.01,,,0.66,Weather View 32 v70,2013-02-27 15:57:00,
2013-02-27 11:02:00,36.8,34.7,29.85,WSW,237,2.0,3.0,92,0.02,,,0.67,Weather View 32 v70,2013-02-27 16:02:00,
2013-02-27 11:07:00,36.8,34.4,29.85,WSW,246,1.0,3.0,91,0.02,,,0.67,Weather View 32 v70,2013-02-27 16:07:00,
2013-02-27 11:13:00,36.8,34.4,29.84,WNW,282,1.0,3.0,91,0.03,,,0.68,Weather View 32 v70,2013-02-27 16:13:00,
2013-02-27 11:18:00,37.0,34.6,29.84,ENE,59,0.0,3.0,91,0.03,,,0.68,Weather View 32 v70,2013-02-27 16:18:00,
2013-02-27 11:22:00,37.2,34.8,29.83,West,263,1.0,3.0,91,0.03,,,0.68,Weather View 32 v70,2013-02-27 16:22:00,
2013-02-27 11:27:00,37.4,35.0,29.83,SW,233,0.0,3.0,91,0.03,,,0.68,Weather View 32 v70,2013-02-27 16:27:00,
2013-02-27 11:32:00,37.2,34.8,29.83,WNW,286,1.0,3.0,91,0.04,,,0.69,Weather View 32 v70,2013-02-27 16:32:00,
2013-02-27 11:38:00,37.4,35.0,29.82,SW,231,2.0,3.0,91,0.04,,,0.69,Weather View 32 v70,2013-02-27 16:38:00,
2013-02-27 11:42:00,37.5,35.1,29.81,SE,125,0.0,3.0,91,0.04,,,0.69,Weather View 32 v70,2013-02-27 16:42:00,
2013-02-27 11:48:00,37.2,34.8,29.81,West,276,2.0,3.0,91,0.05,,,0.70,Weather View 32 v70,2013-02-27 16:48:00,
2013-02-27 11:53:00,37.5,35.1,29.81,West,278,0.0,3.0,91,0.05,,,0.70,Weather View 32 v70,2013-02-27 16:53:00,
2013-02-27 11:58:00,37.0,34.6,29.80,SW,222,2.0,3.0,91,0.04,,,0.70,Weather View 32 v70,2013-02-27 16:58:00,
2013-02-27 12:03:00,37.4,35.0,29.80,WSW,257,2.0,4.0,91,0.03,,,0.70,Weather View 32 v70,2013-02-27 17:03:00,
2013-02-27 12:08:00,37.2,34.8,29.80,SE,140,0.0,4.0,91,0.03,,,0.70,Weather View 32 v70,2013-02-27 17:08:00,
2013-02-27 12:13:00,37.5,35.4,29.80,West,262,1.0,4.0,92,0.02,,,0.70,Weather View 32 v70,2013-02-27 17:13:00,
2013-02-27 12:18:00,37.5,35.4,29.80,WSW,239,2.0,4.0,92,0.02,,,0.70,Weather View 32 v70,2013-02-27 17:18:00,
2013-02-27 12:23:00,38.3,36.2,29.80,WNW,294,1.0,4.0,92,0.02,,,0.70,Weather View 32 v70,2013-02-27 17:23:00,
2013-02-27 12:28:00,38.1,35.7,29.80,NNE,28,1.0,4.0,91,0.03,,,0.71,Weather View 32 v70,2013-02-27 17:28:00,
2013-02-27 12:33:00,38.4,36.3,29.79,West,276,1.0,4.0,92,0.02,,,0.71,Weather View 32 v70,2013-02-27 17:33:00,
2013-02-27 12:38:00,38.6,36.5,29.80,North,6,0.0,4.0,92,0.02,,,0.71,Weather View 32 v70,2013-02-27 17:38:00,
2013-02-27 12:43:00,38.4,36.0,29.79,SW,215,2.0,4.0,91,0.03,,,0.72,Weather View 32 v70,2013-02-27 17:43:00,
2013-02-27 12:48:00,38.8,36.7,29.78,West,263,2.0,4.0,92,0.02,,,0.72,Weather View 32 v70,2013-02-27 17:48:00,
2013-02-27 12:53:00,38.6,36.5,29.79,NW,316,2.0,4.0,92,0.03,,,0.73,Weather View 32 v70,2013-02-27 17:53:00,
2013-02-27 12:58:00,39.0,36.9,29.78,NNW,332,3.0,4.0,92,0.04,,,0.74,Weather View 32 v70,2013-02-27 17:58:00,
2013-02-27 13:03:00,39.5,37.4,29.78,WNW,301,3.0,5.0,92,0.05,,,0.75,Weather View 32 v70,2013-02-27 18:03:00,
2013-02-27 13:08:00,39.7,37.6,29.78,NNW,330,4.0,5.0,92,0.05,,,0.75,Weather View 32 v70,2013-02-27 18:08:00,
2013-02-27 13:13:00,41.0,38.9,29.78,NW,306,0.0,5.0,92,0.06,,,0.76,Weather View 32 v70,2013-02-27 18:13:00,
2013-02-27 13:18:00,40.4,38.3,29.77,North,354,2.0,5.0,92,0.06,,,0.76,Weather View 32 v70,2013-02-27 18:18:00,
2013-02-27 13:23:00,40.2,38.1,29.77,NNW,343,3.0,5.0,92,0.07,,,0.77,Weather View 32 v70,2013-02-27 18:23:00,
2013-02-27 13:28:00,40.1,38.0,29.77,SSW,211,0.0,5.0,92,0.06,,,0.77,Weather View 32 v70,2013-02-27 18:28:00,
2013-02-27 13:33:00,39.7,37.6,29.76,South,180,0.0,5.0,92,0.07,,,0.78,Weather View 32 v70,2013-02-27 18:33:00,
2013-02-27 13:38:00,39.9,37.8,29.76,WSW,237,1.0,5.0,92,0.08,,,0.79,Weather View 32 v70,2013-02-27 18:38:00,
2013-02-27 13:43:00,39.7,37.6,29.70,WSW,255,0.0,5.0,92,0.07,,,0.79,Weather View 32 v70,2013-02-27 18:43:00,
2013-02-27 13:48:00,39.5,37.4,29.75,SSE,161,0.0,5.0,92,0.07,,,0.79,Weather View 32 v70,2013-02-27 18:48:00,
2013-02-27 13:53:00,39.3,37.2,29.70,NW,316,2.0,5.0,92,0.06,,,0.79,Weather View 32 v70,2013-02-27 18:53:00,
2013-02-27 13:58:00,39.5,37.4,29.70,ESE,117,1.0,5.0,92,0.05,,,0.79,Weather View 32 v70,2013-02-27 18:58:00,
2013-02-27 14:03:00,39.3,37.2,29.70,West,277,1.0,5.0,92,0.05,,,0.80,Weather View 32 v70,2013-02-27 19:03:00,
2013-02-27 14:08:00,39.3,37.2,29.70,SSE,163,0.0,5.0,92,0.05,,,0.80,Weather View 32 v70,2013-02-27 19:08:00,
2013-02-27 14:13:00,39.5,37.4,29.70,North,3,0.0,3.0,92,0.04,,,0.80,Weather View 32 v70,2013-02-27 19:13:00,
2013-02-27 14:18:00,39.0,36.9,29.70,ENE,72,1.0,3.0,92,0.05,,,0.81,Weather View 32 v70,2013-02-27 19:18:00,
2013-02-27 14:23:00,39.3,37.2,29.70,WNW,296,1.0,3.0,92,0.05,,,0.82,Weather View 32 v70,2013-02-27 19:23:00,
2013-02-27 14:28:00,39.5,37.4,29.70,SW,220,2.0,3.0,92,0.06,,,0.83,Weather View 32 v70,2013-02-27 19:28:00,
2013-02-27 14:33:00,39.5,37.4,29.70,SW,227,2.0,3.0,92,0.05,,,0.83,Weather View 32 v70,2013-02-27 19:33:00,
2013-02-27 14:38:00,39.3,37.2,29.70,WSW,239,2.0,3.0,92,0.04,,,0.83,Weather View 32 v70,2013-02-27 19:38:00,
2013-02-27 14:43:00,39.0,36.9,29.71,NNW,348,1.0,3.0,92,0.04,,,0.83,Weather View 32 v70,2013-02-27 19:43:00,
2013-02-27 14:48:00,39.0,36.9,29.70,SE,143,1.0,3.0,92,0.04,,,0.83,Weather View 32 v70,2013-02-27 19:48:00,
2013-02-27 14:53:00,38.6,36.5,29.71,SSW,201,1.0,3.0,92,0.04,,,0.83,Weather View 32 v70,2013-02-27 19:53:00,
2013-02-27 14:58:00,38.4,36.3,29.70,NE,45,2.0,3.0,92,0.04,,,0.83,Weather View 32 v70,2013-02-27 19:58:00,
2013-02-27 15:03:00,38.4,36.3,29.70,SSW,210,1.0,3.0,92,0.03,,,0.83,Weather View 32 v70,2013-02-27 20:03:00,
2013-02-27 15:08:00,38.3,36.2,29.70,NNW,340,1.0,3.0,92,0.03,,,0.83,Weather View 32 v70,2013-02-27 20:08:00,
2013-02-27 15:13:00,38.1,36.0,29.70,North,359,2.0,3.0,92,0.03,,,0.83,Weather View 32 v70,2013-02-27 20:13:00,
2013-02-27 15:18:00,38.6,36.5,29.70,NNW,336,2.0,3.0,92,0.03,,,0.84,Weather View 32 v70,2013-02-27 20:18:00,
2013-02-27 15:23:00,38.8,36.7,29.70,South,176,1.0,5.0,92,0.02,,,0.84,Weather View 32 v70,2013-02-27 20:23:00,
2013-02-27 15:28:00,38.6,36.5,29.70,West,281,0.0,5.0,92,0.01,,,0.84,Weather View 32 v70,2013-02-27 20:28:00,
2013-02-27 15:33:00,38.4,36.6,29.70,WNW,289,1.0,5.0,93,0.01,,,0.84,Weather View 32 v70,2013-02-27 20:33:00,
2013-02-27 15:38:00,38.8,36.9,29.70,ESE,116,1.0,5.0,93,0.01,,,0.84,Weather View 32 v70,2013-02-27 20:38:00,
2013-02-27 15:43:00,38.3,36.5,29.70,NNW,332,2.0,5.0,93,0.01,,,0.84,Weather View 32 v70,2013-02-27 20:43:00,
2013-02-27 15:48:00,38.6,36.7,29.70,East,93,0.0,5.0,93,0.01,,,0.84,Weather View 32 v70,2013-02-27 20:48:00,
2013-02-27 15:53:00,38.4,36.6,29.70,North,2,0.0,5.0,93,0.01,,,0.84,Weather View 32 v70,2013-02-27 20:53:00,
2013-02-27 15:58:00,37.9,36.1,29.70,SSW,205,2.0,5.0,93,0.01,,,0.84,Weather View 32 v70,2013-02-27 20:58:00,
2013-02-27 16:03:00,38.4,36.6,29.70,South,175,0.0,5.0,93,0.01,,,0.84,Weather View 32 v70,2013-02-27 21:03:00,
2013-02-27 16:08:00,38.4,36.6,29.70,SW,235,1.0,5.0,93,0.01,,,0.84,Weather View 32 v70,2013-02-27 21:08:00,
2013-02-27 16:13:00,38.8,36.9,29.70,SSE,168,3.0,5.0,93,0.01,,,0.84,Weather View 32 v70,2013-02-27 21:13:00,
2013-02-27 16:18:00,39.2,37.3,29.70,South,175,5.0,8.0,93,0.00,,,0.84,Weather View 32 v70,2013-02-27 21:18:00,
2013-02-27 16:23:00,40.1,38.2,29.70,SE,130,6.0,10.0,93,0.00,,,0.84,Weather View 32 v70,2013-02-27 21:23:00,
2013-02-27 16:28:00,42.2,37.7,29.70,South,182,4.0,16.0,84,0.00,,,0.84,Weather View 32 v70,2013-02-27 21:28:00,
2013-02-27 16:33:00,42.6,36.2,29.70,SSE,159,4.0,16.0,78,0.00,,,0.84,Weather View 32 v70,2013-02-27 21:33:00,
2013-02-27 16:39:00,42.9,36.8,29.70,South,191,2.0,16.0,79,0.00,,,0.84,Weather View 32 v70,2013-02-27 21:39:00,
2013-02-27 16:44:00,42.4,37.0,29.70,SSE,151,3.0,16.0,81,0.00,,,0.84,Weather View 32 v70,2013-02-27 21:44:00,
2013-02-27 16:49:00,42.4,37.0,29.70,SE,134,1.0,16.0,81,0.00,,,0.84,Weather View 32 v70,2013-02-27 21:49:00,
2013-02-27 16:54:00,42.0,36.9,29.70,ENE,70,0.0,16.0,82,0.00,,,0.84,Weather View 32 v70,2013-02-27 21:54:00,
2013-02-27 16:59:00,41.9,37.1,29.70,SE,140,1.0,16.0,83,0.00,,,0.84,Weather View 32 v70,2013-02-27 21:59:00,
2013-02-27 17:04:00,41.5,36.7,29.70,SE,138,0.0,16.0,83,0.00,,,0.84,Weather View 32 v70,2013-02-27 22:04:00,
2013-02-27 17:09:00,40.6,36.1,29.70,SSE,161,2.0,16.0,84,0.01,,,0.85,Weather View 32 v70,2013-02-27 22:09:00,
2013-02-27 17:14:00,41.1,37.2,29.70,South,171,1.0,16.0,86,0.01,,,0.85,Weather View 32 v70,2013-02-27 22:14:00,
2013-02-27 17:19:00,41.0,37.1,29.70,ESE,112,4.0,16.0,86,0.02,,,0.86,Weather View 32 v70,2013-02-27 22:19:00,
2013-02-27 17:24:00,41.3,37.4,29.70,SE,134,2.0,16.0,86,0.02,,,0.86,Weather View 32 v70,2013-02-27 22:24:00,
2013-02-27 17:29:00,41.1,36.9,29.70,SSE,166,2.0,16.0,85,0.02,,,0.86,Weather View 32 v70,2013-02-27 22:29:00,
2013-02-27 17:34:00,41.5,37.3,29.70,South,182,2.0,16.0,85,0.03,,,0.87,Weather View 32 v70,2013-02-27 22:34:00,
2013-02-27 17:39:00,41.1,37.2,29.70,SSW,210,3.0,8.0,86,0.04,,,0.88,Weather View 32 v70,2013-02-27 22:39:00,
2013-02-27 17:44:00,40.1,36.5,29.71,South,176,1.0,8.0,87,0.05,,,0.89,Weather View 32 v70,2013-02-27 22:44:00,
2013-02-27 17:49:00,39.9,36.6,29.71,SSW,198,1.0,8.0,88,0.05,,,0.89,Weather View 32 v70,2013-02-27 22:49:00,
2013-02-27 17:54:00,39.2,36.2,29.70,North,3,0.0,8.0,89,0.05,,,0.89,Weather View 32 v70,2013-02-27 22:54:00,
2013-02-27 17:59:00,39.0,36.0,29.70,SSW,199,1.0,8.0,89,0.06,,,0.90,Weather View 32 v70,2013-02-27 22:59:00,
2013-02-27 18:04:00,38.4,35.4,29.71,WSW,251,1.0,8.0,89,0.07,,,0.91,Weather View 32 v70,2013-02-27 23:04:00,
2013-02-27 18:09:00,39.0,36.3,29.71,WSW,247,0.0,9.0,90,0.06,,,0.91,Weather View 32 v70,2013-02-27 23:09:00,
2013-02-27 18:14:00,38.8,36.4,29.71,SE,130,2.0,9.0,91,0.07,,,0.92,Weather View 32 v70,2013-02-27 23:14:00,
2013-02-27 18:19:00,39.2,36.8,29.71,SE,127,4.0,9.0,91,0.06,,,0.92,Weather View 32 v70,2013-02-27 23:19:00,
2013-02-27 18:24:00,39.2,36.5,29.71,SW,222,1.0,9.0,90,0.06,,,0.92,Weather View 32 v70,2013-02-27 23:24:00,
2013-02-27 18:29:00,39.7,37.0,29.71,SSW,202,1.0,9.0,90,0.07,,,0.93,Weather View 32 v70,2013-02-27 23:29:00,
2013-02-27 18:34:00,39.7,36.7,29.71,South,182,3.0,9.0,89,0.06,,,0.93,Weather View 32 v70,2013-02-27 23:34:00,
2013-02-27 18:39:00,39.5,36.5,29.71,SE,135,2.0,9.0,89,0.05,,,0.93,Weather View 32 v70,2013-02-27 23:39:00,
2013-02-27 18:44:00,39.2,36.2,29.71,SSE,167,5.0,9.0,89,0.05,,,0.94,Weather View 32 v70,2013-02-27 23:44:00,
2013-02-27 18:49:00,38.8,35.8,29.76,East,101,2.0,9.0,89,0.06,,,0.95,Weather View 32 v70,2013-02-27 23:49:00,
2013-02-27 18:54:00,39.5,36.5,29.77,SE,146,3.0,9.0,89,0.06,,,0.95,Weather View 32 v70,2013-02-27 23:54:00,
2013-02-27 18:59:00,39.3,36.3,29.76,SE,129,4.0,9.0,89,0.05,,,0.95,Weather View 32 v70,2013-02-27 23:59:00,
2013-02-27 19:04:00,39.2,36.2,29.71,SSE,149,4.0,9.0,89,0.04,,,0.95,Weather View 32 v70,2013-02-28 00:04:00,
2013-02-27 19:09:00,39.0,36.0,29.71,ESE,116,5.0,9.0,89,0.05,,,0.96,Weather View 32 v70,2013-02-28 00:09:00,
2013-02-27 19:14:00,38.8,35.8,29.71,SE,128,2.0,9.0,89,0.04,,,0.96,Weather View 32 v70,2013-02-28 00:14:00,
2013-02-27 19:19:00,38.8,35.8,29.71,ESE,123,4.0,9.0,89,0.04,,,0.96,Weather View 32 v70,2013-02-28 00:19:00,
2013-02-27 19:24:00,38.6,35.6,29.71,SE,134,3.0,9.0,89,0.04,,,0.96,Weather View 32 v70,2013-02-28 00:24:00,
2013-02-27 19:29:00,38.8,35.8,29.71,ESE,122,3.0,9.0,89,0.03,,,0.96,Weather View 32 v70,2013-02-28 00:29:00,
2013-02-27 19:34:00,38.6,35.9,29.71,SSE,164,2.0,9.0,90,0.03,,,0.96,Weather View 32 v70,2013-02-28 00:34:00,
2013-02-27 19:39:00,38.4,35.7,29.71,SE,135,2.0,9.0,90,0.03,,,0.96,Weather View 32 v70,2013-02-28 00:39:00,
2013-02-27 19:44:00,38.4,35.7,29.77,SE,143,3.0,9.0,90,0.02,,,0.96,Weather View 32 v70,2013-02-28 00:44:00,
2013-02-27 19:49:00,38.3,35.9,29.77,SE,145,1.0,9.0,91,0.01,,,0.96,Weather View 32 v70,2013-02-28 00:49:00,
2013-02-27 19:54:00,38.3,35.9,29.76,SSE,151,1.0,7.0,91,0.01,,,0.96,Weather View 32 v70,2013-02-28 00:54:00,
2013-02-27 19:59:00,38.1,35.7,29.76,SE,130,2.0,7.0,91,0.01,,,0.96,Weather View 32 v70,2013-02-28 00:59:00,
2013-02-27 20:04:00,38.4,36.3,29.77,SE,127,1.0,7.0,92,0.01,,,0.96,Weather View 32 v70,2013-02-28 01:04:00,
2013-02-27 20:09:00,38.3,36.2,29.77,SE,127,1.0,6.0,92,0.00,,,0.96,Weather View 32 v70,2013-02-28 01:09:00,
2013-02-27 20:14:00,37.9,35.8,29.77,SSE,147,1.0,5.0,92,0.00,,,0.96,Weather View 32 v70,2013-02-28 01:14:00,
2013-02-27 20:19:00,37.7,35.6,29.71,SSE,164,0.0,5.0,92,0.01,,,0.97,Weather View 32 v70,2013-02-28 01:19:00,
2013-02-27 20:24:00,37.7,35.6,29.71,South,186,0.0,5.0,92,0.01,,,0.97,Weather View 32 v70,2013-02-28 01:24:00,
2013-02-27 20:29:00,37.5,35.4,29.71,ESE,103,2.0,5.0,92,0.01,,,0.97,Weather View 32 v70,2013-02-28 01:29:00,
2013-02-27 20:34:00,38.1,36.0,29.76,South,173,3.0,5.0,92,0.01,,,0.97,Weather View 32 v70,2013-02-28 01:34:00,
2013-02-27 20:39:00,38.4,36.3,29.77,WNW,286,2.0,5.0,92,0.01,,,0.97,Weather View 32 v70,2013-02-28 01:39:00,
2013-02-27 20:44:00,37.9,35.8,29.77,SE,143,2.0,5.0,92,0.01,,,0.97,Weather View 32 v70,2013-02-28 01:44:00,
2013-02-27 20:49:00,38.1,36.0,29.77,South,175,2.0,6.0,92,0.01,,,0.97,Weather View 32 v70,2013-02-28 01:49:00,
2013-02-27 20:54:00,38.3,36.2,29.78,SSE,168,1.0,6.0,92,0.01,,,0.97,Weather View 32 v70,2013-02-28 01:54:00,
2013-02-27 20:59:00,38.3,36.2,29.78,SSE,160,2.0,6.0,92,0.01,,,0.97,Weather View 32 v70,2013-02-28 01:59:00,
2013-02-27 21:04:00,38.3,36.2,29.78,South,170,2.0,6.0,92,0.01,,,0.97,Weather View 32 v70,2013-02-28 02:04:00,
2013-02-27 21:09:00,38.3,36.2,29.78,SSE,160,1.0,6.0,92,0.01,,,0.97,Weather View 32 v70,2013-02-28 02:09:00,
2013-02-27 21:14:00,37.9,35.8,29.78,SSE,151,4.0,6.0,92,0.01,,,0.97,Weather View 32 v70,2013-02-28 02:14:00,
2013-02-27 21:19:00,37.7,35.6,29.77,South,180,3.0,6.0,92,0.00,,,0.97,Weather View 32 v70,2013-02-28 02:19:00,
2013-02-27 21:24:00,37.7,35.6,29.77,SE,136,2.0,6.0,92,0.00,,,0.97,Weather View 32 v70,2013-02-28 02:24:00,
2013-02-27 21:29:00,37.9,35.8,29.77,ESE,119,3.0,6.0,92,0.00,,,0.97,Weather View 32 v70,2013-02-28 02:29:00,
2013-02-27 21:34:00,37.5,35.4,29.77,SSE,153,2.0,6.0,92,0.00,,,0.97,Weather View 32 v70,2013-02-28 02:34:00,
2013-02-27 21:39:00,37.5,35.4,29.78,SSE,150,2.0,6.0,92,0.00,,,0.97,Weather View 32 v70,2013-02-28 02:39:00,
2013-02-27 21:44:00,37.7,35.6,29.78,South,186,5.0,6.0,92,0.00,,,0.97,Weather View 32 v70,2013-02-28 02:44:00,
2013-02-27 21:49:00,37.7,35.6,29.78,SE,131,3.0,6.0,92,0.00,,,0.97,Weather View 32 v70,2013-02-28 02:49:00,
2013-02-27 21:54:00,37.5,35.4,29.78,SSE,160,3.0,6.0,92,0.00,,,0.97,Weather View 32 v70,2013-02-28 02:54:00,
2013-02-27 21:59:00,37.4,35.3,29.78,SSE,163,2.0,6.0,92,0.00,,,0.97,Weather View 32 v70,2013-02-28 02:59:00,
2013-02-27 22:04:00,37.5,35.4,29.78,SSW,196,1.0,6.0,92,0.00,,,0.97,Weather View 32 v70,2013-02-28 03:04:00,
2013-02-27 22:09:00,37.4,35.3,29.78,SSE,168,2.0,6.0,92,0.00,,,0.97,Weather View 32 v70,2013-02-28 03:09:00,
2013-02-27 22:14:00,37.4,35.3,29.78,SW,226,2.0,6.0,92,0.00,,,0.97,Weather View 32 v70,2013-02-28 03:14:00,
2013-02-27 22:19:00,37.2,35.1,29.79,SSW,193,2.0,6.0,92,0.00,,,0.97,Weather View 32 v70,2013-02-28 03:19:00,
2013-02-27 22:24:00,37.4,35.3,29.78,SSW,196,2.0,6.0,92,0.00,,,0.97,Weather View 32 v70,2013-02-28 03:24:00,
2013-02-27 22:29:00,37.4,35.3,29.78,SSW,200,2.0,6.0,92,0.00,,,0.97,Weather View 32 v70,2013-02-28 03:29:00,
2013-02-27 22:34:00,37.4,35.3,29.79,East,98,1.0,6.0,92,0.00,,,0.97,Weather View 32 v70,2013-02-28 03:34:00,
2013-02-27 22:39:00,37.4,35.3,29.79,SSE,156,2.0,6.0,92,0.00,,,0.97,Weather View 32 v70,2013-02-28 03:39:00,
2013-02-27 22:44:00,37.2,35.1,29.79,SSW,208,3.0,6.0,92,0.00,,,0.97,Weather View 32 v70,2013-02-28 03:44:00,
2013-02-27 22:49:00,37.2,35.1,29.79,South,184,2.0,5.0,92,0.01,,,0.98,Weather View 32 v70,2013-02-28 03:49:00,
2013-02-27 22:54:00,37.2,35.1,29.79,ESE,106,1.0,5.0,92,0.01,,,0.98,Weather View 32 v70,2013-02-28 03:54:00,
2013-02-27 22:59:00,37.2,35.1,29.79,South,182,1.0,5.0,92,0.01,,,0.98,Weather View 32 v70,2013-02-28 03:59:00,
2013-02-27 23:04:00,37.4,35.3,29.79,WSW,254,1.0,4.0,92,0.01,,,0.98,Weather View 32 v70,2013-02-28 04:04:00,
2013-02-27 23:09:00,37.2,35.1,29.78,SSE,167,2.0,4.0,92,0.01,,,0.98,Weather View 32 v70,2013-02-28 04:09:00,
2013-02-27 23:14:00,36.8,34.7,29.78,ESE,115,3.0,4.0,92,0.01,,,0.98,Weather View 32 v70,2013-02-28 04:14:00,
2013-02-27 23:19:00,37.2,35.1,29.78,SSE,158,2.0,4.0,92,0.01,,,0.98,Weather View 32 v70,2013-02-28 04:19:00,
2013-02-27 23:24:00,37.2,35.1,29.78,SE,138,1.0,4.0,92,0.01,,,0.98,Weather View 32 v70,2013-02-28 04:24:00,
2013-02-27 23:29:00,37.2,35.1,29.77,ESE,110,3.0,4.0,92,0.01,,,0.98,Weather View 32 v70,2013-02-28 04:29:00,
2013-02-27 23:34:00,37.0,34.9,29.71,SE,130,2.0,4.0,92,0.01,,,0.98,Weather View 32 v70,2013-02-28 04:34:00,
2013-02-27 23:39:00,36.8,34.7,29.71,SE,137,2.0,4.0,92,0.01,,,0.98,Weather View 32 v70,2013-02-28 04:39:00,
2013-02-27 23:44:00,37.0,34.9,29.71,ESE,102,2.0,4.0,92,0.01,,,0.98,Weather View 32 v70,2013-02-28 04:44:00,
2013-02-27 23:49:00,37.0,34.9,29.71,ESE,119,1.0,4.0,92,0.00,,,0.98,Weather View 32 v70,2013-02-28 04:49:00,
2013-02-27 23:54:00,36.8,34.7,29.71,East,92,1.0,4.0,92,0.00,,,0.98,Weather View 32 v70,2013-02-28 04:54:00,
2013-02-27 23:59:00,36.8,34.7,29.71,East,89,1.0,4.0,92,0.00,,,0.98,Weather View 32 v70,2013-02-28 04:59:00,